Starlink 6274

operational
NORAD ID: 56776 Int'l Des: 2023-078 Owner: SPXS Country: US Constellation: starlink
LEOCIRCULAR

About Starlink 6274

Description loading...

Live Position

Loading 3D Globe...

Upcoming Passes

Altitude History

Altitude vs Time

uPlot chart will show altitude changes over time

Two-Line Element Set

1 56776U 23078K 26049.29342885 -.00000053 00000-0 33792-5 0 9991
2 56776 70.0010 13.5431 0002812 266.9464 93.1373 14.98328388150262
Epoch: Feb 18, 2026 • Age: 24 hours

Current Status

Altitude 576.1 km
Velocity 7.57 km/s
Sub-Earth Point -9.88°S, 112.72°E
Launch Date May 31, 2023
Age 2.7 years
Type internet

Technical Details

Classification Payload
Mass 305.00 kg
Dry Mass 290.00 kg
Total Mass 305.00 kg
Length 0.20 m
Diameter 2.80 m
Span 9.00 m
Shape Box + pan
Manufacturer SPXS
Bus Type Starlink
Phase Status In Orbit
Owner/State SPXS/US

Large Constellations

Loading constellations...